Starlink 11311

operational
NORAD ID: 61253 Int'l Des: 2024-175 Owner: SPXS Country: US Constellation: starlink
LEOCIRCULAR

Starlink 11311について

説明を読み込み中...

リアルタイム位置

3D地球を読み込み中...

次回通過

高度履歴

Altitude vs Time

uPlot chart will show altitude changes over time

軌道要素

1 61253U 24175L 25352.57369452 .00000637 00000-0 10113-4 0 9990
2 61253 53.1609 96.3306 0001449 68.4906 291.6267 15.69724084 71839
Epoch: Dec 18, 2025 • Age: 28 hours

現在のステータス

高度 364.2 km
速度 7.70 km/s
衛星直下点 47.78°N, 139.44°W
打ち上げ日 Sep 25, 2024
運用期間 1.2 years
タイプ internet

技術仕様

分類 Payload
質量 960.00 kg
乾燥質量 910.00 kg
総質量 960.00 kg
長さ 0.30 m
直径 4.10 m
スパン 29.00 m
形状 Box + pan
製造者 SPXS
バスタイプ Starlink V2MD
フェーズステータス In Orbit
所有者/国 SPXS/US

大規模コンステレーション

Loading constellations...